Temperature
7 5 5 6 6 7 7 7 7 7 8 8 7 7 8 8 8 8 9 9 10 10 11 11 11 11 11 11 11 11 11 10 10 10 10 10 9 9 9 9 9 10 10 10
5 5 6 7 7 7 7 6 6 7 7 7 7 7 7 7 8 8 8 9 9 10 10 10 11 10 11 10 10 10 10 10 10 10 10 9 9 9 9 9 9 9 9 9
5 6 7 7 7 7 7 6 6 6 7 7 6 6 7 7 8 8 8 9 9 9 10 10 10 10 10 10 10 10 10 10 10 9 9 9 8 8 8 8 8 9 9 9
5 6 6 6 6 7 6 6 6 6 5 5 6 5 6 6 6 7 7 8 8 8 9 9 9 9 9 9 9 9 9 9 9 9 9 8 8 8 8 8 8 8 8 8
5 5 6 6 6 6 6 6 6 6 5 4 5 4 5 6 6 6 6 7 8 8 8 9 9 9 9 9 9 9 9 9 8 8 8 8 8 8 8 8 8 8 8 8
5 5 6 6 6 6 6 5 5 4 4 4 4 4 5 5 6 6 6 7 7 8 8 8 8 8 8 8 8 8 8 8 8 8 8 8 7 7 7 7 7 7 7 7
4 5 5 5 5 5 5 4 3 3 3 4 4 4 5 5 6 6 6 6 7 7 7 7 7 7 8 7 7 7 7 7 7 7 7 7 7 7 7 7 7 7 7 7
3 3 4 5 5 4 4 4 3 3 3 4 4 4 5 5 6 6 6 6 6 6 7 7 7 7 7 7 7 7 7 7 7 7 7 7 6 6 6 6 6 7 7 7
3 3 4 4 5 5 4 4 4 3 2 3 4 3 4 5 5 5 5 5 5 6 6 6 6 6 6 6 6 7 7 7 6 6 6 6 6 6 6 6 6 6 6 6
3 3 3 4 5 4 4 3 2 3 3 4 4 4 4 4 4 4 4 4 5 5 6 6 6 6 6 6 6 6 6 6 6 6 6 6 6 6 6 6 6 6 6 5
2 2 2 3 3 3 3 3 2 2 2 3 3 4 4 4 4 3 3 4 4 5 5 5 5 5 5 5 5 5 6 6 6 6 6 6 5 5 5 5 5 5 5 5
2 1 1 2 3 3 3 3 2 2 2 1 2 4 5 4 3 3 3 4 4 5 5 5 5 5 4 4 5 5 5 5 5 5 5 5 5 5 5 5 5 5 5 5
2 1 1 2 2 2 2 2 2 1 1 1 1 3 4 3 3 3 4 4 4 4 4 4 4 4 4 4 4 4 4 4 5 5 5 5 4 4 4 4 4 4 4 4
2 0 1 1 2 1 1 1 1 1 1 1 2 3 3 3 3 3 3 4 4 4 4 4 4 4 3 3 3 4 4 4 4 4 4 4 4 4 4 4 4 4 4 4
1 -0 -1 0 1 1 1 1 1 1 1 1 2 2 3 3 2 3 3 3 3 3 3 3 3 3 3 3 3 3 3 3 3 4 4 4 4 4 4 4 4 3 3 3
-1 -1 -1 -0 1 1 1 1 1 1 1 1 2 2 3 3 3 2 2 2 2 2 3 3 3 3 3 3 3 2 3 3 3 3 3 3 3 3 3 3 3 3 3 3
-1 -2 -1 -1 -1 -0 0 1 1 1 1 1 2 2 2 2 2 2 2 2 2 2 2 2 2 2 2 2 2 2 2 3 3 3 3 3 3 3 3 3 3 3 3 3
-2 -2 -2 -2 -2 -1 1 1 1 1 1 1 1 1 1 2 2 3 3 3 2 2 2 2 2 2 2 2 2 2 2 2 2 3 3 3 3 2 2 2 2 2 2 2
-1 -2 -2 -2 -2 -1 1 1 0 0 1 0 0 1 1 2 1 1 2 3 2 2 2 2 2 2 2 2 2 2 2 2 2 2 2 2 2 2 2 2 2 2 2 2
-2 -2 -3 -3 -1 -1 1 1 1 1 0 1 0 0 0 1 -0 0 2 2 2 2 2 1 1 1 1 1 1 1 1 2 2 2 2 2 2 2 1 2 2 1 1 1
-2 -3 -3 -3 -2 -1 0 1 1 0 1 1 1 1 1 -0 1 1 2 1 1 1 1 1 1 1 1 1 1 1 1 1 1 1 1 1 1 1 1 1 1 1 1 1
-2 -3 -3 -3 -2 -1 0 -0 -0 0 1 1 1 1 1 1 1 1 1 1 1 1 1 1 1 1 1 1 1 1 1 1 1 1 1 1 1 1 1 0 0 0 0 0
-3 -2 -2 -2 -1 0 1 1 1 1 1 1 1 1 0 0 0 0 0 0 0 0 0 0 0 0 0 0 0 0 0 0 0 -0 0 0 0 -0 -0 -0 -0 -0 -0 -0
-3 -3 -3 -3 -2 -1 0 1 1 1 1 1 0 0 -0 -0 -0 -0 -0 -0 -1 -1 -0 -0 -0 -0 -0 -0 -0 -0 -0 -1 -1 -1 -1 -0 -0 -1 -1 -0 -0 -1 -1 -1
-2 -3 -3 -3 -2 -1 -0 1 1 0 0 0 0 -0 -1 -1 -1 -1 -1 -1 -1 -1 -1 -1 -1 -1 -1 -1 -1 -1 -1 -1 -1 -1 -1 -1 -1 -1 -1 -1 -1 -1 -1 -1
-3 -3 -3 -2 -1 -2 -1 0 0 -0 -1 -1 -1 -1 -1 -1 -1 -1 -1 -1 -2 -2 -2 -2 -2 -2 -1 -1 -1 -1 -1 -1 -1 -1 -2 -2 -2 -1 -1 -1 -1 -1 -1 -2
Wind_Speed
1 2 4 7 8 6 5 5 7 8 5 4 8 12 12 9 7 8 8 8 7 7 6 4 4 4 5 6 6 7 7 6 6 5 5 4 4 3 3 4 6 7 7 7
1 5 8 5 4 4 5 6 8 8 5 4 8 12 11 8 8 8 8 8 7 5 3 2 2 3 5 6 7 7 7 7 6 6 5 3 3 2 2 3 4 6 7 7
5 5 4 3 4 5 6 7 7 7 7 4 5 8 7 6 4 4 5 5 4 5 5 3 3 3 4 6 7 7 7 6 5 5 4 4 3 2 1 2 3 3 5 6
4 5 2 3 5 5 7 6 6 5 4 5 2 5 7 6 5 4 4 3 3 3 3 3 3 4 5 6 6 6 6 6 5 5 6 7 5 4 3 3 3 3 4 5
4 3 3 5 6 4 5 4 4 4 4 4 3 4 8 3 5 6 5 4 3 3 3 3 3 4 4 4 5 5 6 5 5 6 7 7 5 3 2 2 3 3 2 3
5 3 3 4 3 3 2 2 3 2 0 5 6 6 6 3 5 5 4 3 2 2 1 1 1 2 2 3 3 4 5 5 5 6 6 6 6 5 4 3 4 3 2 2
4 4 2 1 1 1 2 3 2 3 2 6 3 5 7 6 4 4 4 3 2 2 1 1 1 2 2 3 3 4 5 5 5 6 6 6 6 7 6 5 5 4 2 2
2 5 4 2 4 4 4 6 5 4 5 5 2 5 5 4 1 1 1 1 1 1 1 1 1 2 2 3 3 4 4 4 4 5 5 5 5 5 4 5 5 5 4 3
4 5 3 3 3 4 3 4 4 3 2 4 5 5 6 2 3 3 2 2 1 0 1 1 1 1 2 2 3 4 4 3 4 4 4 5 5 5 5 5 4 4 3 3
3 4 4 3 0 1 3 4 3 3 3 5 5 4 4 3 2 1 1 1 2 1 0 0 0 1 1 1 2 2 3 4 3 4 4 4 4 5 5 5 5 4 4 3
1 2 4 1 3 4 1 2 2 2 2 3 4 6 3 4 4 2 1 2 2 1 1 1 1 1 1 0 1 2 2 2 3 3 3 4 4 4 4 4 5 5 4 4
2 2 3 5 4 3 4 4 5 3 4 3 3 7 3 2 2 1 1 2 2 2 1 1 1 1 1 1 1 1 1 2 3 3 3 4 3 3 3 3 4 4 4 4
3 3 1 4 3 2 2 3 3 3 2 4 5 7 3 2 2 2 2 3 2 2 2 1 0 1 1 1 1 1 2 2 3 3 3 3 4 4 4 4 3 3 4 5
1 3 5 7 6 3 4 5 4 4 4 6 9 10 8 5 5 5 4 4 3 3 2 1 1 2 2 1 1 1 2 2 2 3 3 4 4 4 4 3 3 3 4 5
3 3 5 7 7 5 7 8 7 8 9 9 10 11 13 9 7 6 5 4 3 3 2 2 3 3 2 2 1 1 2 2 2 2 3 4 4 3 3 3 3 3 3 4
2 2 2 5 6 5 8 10 10 10 9 10 10 13 10 6 4 5 5 4 4 4 4 3 3 3 3 3 3 2 2 2 2 3 3 3 3 3 3 3 3 3 3 3
2 2 1 4 4 3 7 9 9 7 7 8 12 13 7 5 6 6 6 5 5 5 4 4 4 4 4 4 3 3 3 2 2 3 3 3 3 3 3 3 3 3 3 3
4 3 2 2 1 6 8 3 6 8 9 9 8 8 6 7 7 6 5 5 5 5 5 5 4 4 3 3 3 3 2 2 2 2 3 3 3 3 2 3 3 3 3 3
6 5 3 2 3 7 8 4 3 5 7 7 8 7 5 4 2 3 4 4 5 5 5 4 4 4 3 3 3 2 2 2 2 3 3 4 4 4 3 3 3 3 3 3
4 4 4 3 3 6 7 4 2 1 6 5 6 6 5 1 3 5 4 3 3 3 3 3 3 2 3 3 2 2 3 3 3 4 4 3 4 4 4 4 3 2 3 3
3 3 6 6 6 8 7 3 2 3 6 3 4 5 4 5 6 5 3 3 3 2 2 2 2 2 3 3 3 3 3 4 4 3 3 3 3 4 4 3 3 3 3 2
7 5 6 5 6 8 4 3 5 7 3 3 3 4 5 5 5 4 3 3 2 2 2 1 2 2 2 2 3 4 4 4 2 2 2 2 3 3 3 3 2 3 3 3
7 8 6 8 8 5 4 6 5 3 3 3 3 4 4 5 5 4 3 3 2 2 2 2 2 2 2 2 3 4 4 2 2 2 2 2 2 2 2 3 3 3 3 3
4 3 4 5 8 6 5 4 4 4 4 4 4 5 4 5 5 4 4 3 2 2 2 2 2 2 3 3 2 3 3 2 3 3 2 2 2 2 2 2 3 3 4 4
6 4 4 6 7 5 6 6 6 5 4 4 4 4 4 4 4 4 4 3 3 3 2 2 2 3 3 3 3 2 2 2 2 3 3 2 3 3 3 3 3 4 4 5
5 6 7 8 7 6 6 5 4 4 5 5 4 4 4 4 4 4 4 4 3 3 2 2 3 3 3 3 3 3 2 3 3 3 2 2 2 2 2 2 2 3 4 6
Wind_Direction
97 116 217 221 214 217 216 236 259 263 265 265 257 266 270 269 262 258 255 247 243 244 249 227 204 190 176 170 173 177 172 169 160 161 163 162 178 178 176 170 165 163 163 163
54 243 243 239 230 235 236 250 267 284 282 271 270 273 270 259 248 243 242 243 239 243 252 232 190 177 178 179 178 177 175 171 175 176 172 167 163 176 181 166 161 164 164 167
205 250 247 231 239 244 252 241 250 265 302 303 294 293 272 266 259 255 248 237 230 213 215 209 189 193 181 185 184 180 177 172 172 160 145 130 108 100 123 163 172 168 167 172
250 269 270 254 256 240 255 249 247 259 278 277 257 282 282 270 275 261 254 238 230 222 205 201 194 200 193 194 185 177 171 165 162 155 156 156 165 184 198 188 183 173 168 171
254 259 254 252 255 230 236 262 251 257 243 274 248 236 281 273 260 255 248 241 239 227 203 200 200 193 189 181 175 173 163 161 161 164 163 164 167 178 156 150 162 170 176 172
253 259 230 231 271 229 249 11 5 15 106 262 230 210 273 246 237 248 249 253 245 231 202 186 184 155 146 146 157 158 157 163 164 166 167 171 171 164 156 161 173 184 184 189
294 278 266 148 7 328 93 97 17 341 292 251 232 213 251 261 249 217 221 235 230 197 181 146 126 135 142 146 155 157 155 163 166 167 170 173 175 173 176 178 181 183 192 209
240 273 239 215 206 209 211 163 172 213 239 275 271 234 259 288 303 104 123 141 136 149 163 181 171 161 165 164 156 155 158 165 168 170 174 170 169 176 182 183 181 188 202 209
209 255 281 257 245 169 176 204 189 168 251 266 260 277 298 358 25 35 50 58 33 217 184 189 187 176 178 175 173 169 168 168 171 173 170 170 174 181 184 183 184 191 199 200
186 252 281 283 350 287 185 162 117 159 201 255 274 258 249 258 265 344 21 344 324 304 269 10 193 207 196 192 186 167 168 171 174 173 177 174 174 183 182 176 185 192 196 196
179 208 289 314 205 211 187 162 155 169 194 201 264 269 237 223 213 204 254 299 293 295 279 259 266 238 203 142 161 171 171 168 171 178 177 169 176 178 176 182 193 194 195 194
187 165 248 255 263 242 207 198 160 177 242 219 235 268 295 242 221 197 271 306 299 297 290 267 231 194 170 185 200 201 192 187 192 187 181 177 180 176 179 190 199 195 195 197
166 143 348 330 313 319 244 222 191 170 184 211 225 262 317 355 332 291 273 276 282 294 297 315 252 199 210 221 212 220 224 213 206 189 182 179 184 189 196 200 198 195 195 193
150 170 197 218 237 223 246 250 221 184 211 238 240 259 283 293 293 294 286 273 257 256 238 262 252 223 219 231 226 227 252 238 215 192 185 191 199 200 200 195 193 202 198 194
128 210 234 252 263 248 244 249 237 225 224 229 252 258 267 264 261 267 274 272 270 263 257 251 240 230 225 235 251 249 252 252 222 196 199 208 201 193 190 192 203 203 199 200
140 194 250 274 273 266 266 256 242 239 236 239 257 268 267 266 255 261 259 254 258 255 254 254 247 229 226 231 233 243 255 248 221 207 208 207 195 189 191 201 202 195 196 196
185 161 200 271 297 327 273 244 224 229 229 218 239 254 272 275 254 243 239 239 237 243 251 252 248 240 236 235 229 233 245 246 225 215 208 201 193 198 200 191 185 194 198 194
175 167 186 253 31 245 252 242 215 227 248 239 246 263 261 257 262 246 228 226 236 245 246 247 245 252 257 247 239 235 240 230 225 217 210 203 192 193 192 186 194 202 200 197
187 170 179 191 235 271 285 260 204 218 260 241 243 266 274 277 299 274 248 231 235 238 237 238 238 238 242 244 241 237 246 235 225 221 218 208 193 189 192 207 216 208 197 207
173 163 178 195 217 242 256 261 232 165 275 254 238 255 271 251 255 262 260 263 253 242 228 232 241 237 237 242 228 225 238 235 234 227 220 209 192 188 200 211 214 202 199 211
171 185 202 214 233 258 257 250 119 176 255 264 244 248 243 228 238 264 276 270 247 239 239 236 231 239 246 240 214 224 231 237 244 234 211 200 194 193 197 197 199 188 192 197
190 189 202 193 218 250 238 158 192 230 261 263 258 251 246 255 267 275 267 260 250 247 250 241 247 266 266 234 206 223 236 240 233 212 205 203 201 199 186 180 194 189 185 195
205 199 197 201 220 242 201 212 233 228 247 257 257 265 255 263 270 275 267 252 244 245 253 256 244 267 282 254 212 225 244 228 206 200 211 211 202 197 187 186 194 193 192 202
247 214 202 240 257 259 253 255 270 256 250 262 261 261 254 258 264 270 266 258 252 256 260 263 248 255 280 278 244 232 237 210 190 201 215 208 194 204 202 204 203 207 210 214
225 195 216 249 268 285 268 248 253 265 271 278 281 267 253 254 267 266 263 261 253 260 267 249 240 247 264 272 266 248 221 194 198 208 211 211 205 206 213 219 220 222 224 220
212 199 207 236 234 224 248 250 243 252 267 267 275 286 281 259 260 266 264 268 263 260 264 254 257 258 264 268 274 272 231 193 193 211 217 215 213 212 212 221 260 260 244 239
Height
1490 1494 1493 1491 1491 1491 1491 1492 1492 1488 1485 1485 1483 1480 1475 1474 1473 1472 1471 1471 1471 1471 1472 1473 1474 1476 1477 1479 1481 1483 1484 1486 1488 1490 1492 1494 1496 1498 1500 1502 1504 1506 1508 1509
1494 1493 1488 1488 1488 1489 1489 1491 1490 1486 1483 1484 1482 1477 1472 1470 1469 1468 1467 1467 1467 1467 1468 1469 1471 1472 1473 1474 1476 1478 1480 1482 1484 1486 1488 1490 1493 1495 1497 1499 1501 1503 1505 1506
1491 1488 1486 1487 1487 1488 1487 1489 1488 1487 1483 1482 1482 1477 1470 1467 1465 1465 1464 1463 1464 1464 1464 1466 1467 1468 1469 1471 1473 1474 1476 1478 1480 1482 1485 1487 1490 1492 1494 1496 1497 1500 1502 1503
1489 1486 1485 1486 1486 1485 1486 1483 1484 1484 1488 1489 1486 1485 1470 1466 1464 1462 1461 1460 1460 1461 1462 1463 1464 1465 1466 1468 1470 1471 1473 1475 1477 1479 1481 1483 1485 1487 1489 1492 1494 1496 1498 1500
1489 1485 1485 1485 1483 1483 1484 1482 1482 1483 1487 1490 1487 1488 1473 1466 1464 1460 1459 1458 1458 1459 1459 1460 1461 1462 1463 1465 1467 1468 1470 1472 1474 1475 1477 1479 1482 1484 1487 1489 1491 1493 1495 1497
1486 1484 1483 1482 1481 1481 1482 1483 1484 1487 1490 1490 1483 1485 1474 1467 1460 1457 1456 1456 1456 1457 1458 1458 1459 1459 1461 1462 1464 1465 1467 1469 1471 1472 1474 1476 1478 1481 1483 1485 1487 1489 1491 1493
1488 1484 1481 1481 1482 1481 1483 1489 1496 1496 1496 1487 1478 1478 1470 1459 1455 1454 1454 1454 1455 1456 1456 1456 1457 1458 1459 1460 1462 1463 1464 1466 1468 1470 1471 1473 1476 1478 1480 1482 1484 1486 1487 1489
1491 1488 1481 1479 1480 1482 1483 1485 1494 1496 1494 1485 1478 1476 1465 1456 1453 1453 1453 1453 1454 1454 1455 1455 1455 1456 1457 1458 1460 1461 1462 1463 1465 1467 1468 1471 1473 1475 1477 1479 1481 1482 1484 1486
1490 1487 1479 1477 1477 1478 1481 1483 1483 1491 1492 1488 1479 1473 1462 1455 1454 1453 1453 1453 1453 1453 1453 1454 1455 1455 1456 1457 1458 1459 1460 1461 1463 1464 1466 1468 1470 1472 1474 1476 1478 1479 1481 1483
1484 1487 1481 1478 1476 1477 1477 1479 1487 1489 1488 1484 1476 1472 1466 1458 1456 1455 1454 1453 1453 1453 1453 1453 1454 1454 1455 1456 1457 1458 1458 1459 1460 1462 1463 1465 1467 1469 1471 1473 1474 1476 1478 1479
1483 1487 1485 1480 1479 1478 1479 1481 1482 1487 1487 1484 1481 1469 1456 1455 1454 1454 1454 1454 1453 1453 1453 1453 1453 1453 1454 1455 1455 1456 1457 1457 1458 1460 1461 1462 1464 1466 1468 1469 1471 1473 1474 1475
1481 1486 1487 1482 1477 1475 1475 1476 1481 1485 1486 1486 1483 1470 1454 1453 1452 1453 1453 1453 1453 1452 1452 1452 1452 1452 1453 1453 1454 1454 1455 1455 1456 1458 1459 1460 1461 1463 1464 1466 1467 1469 1470 1472
1479 1485 1488 1483 1482 1478 1477 1475 1477 1480 1484 1485 1482 1468 1454 1453 1452 1452 1452 1452 1452 1452 1451 1451 1451 1451 1451 1452 1452 1452 1453 1454 1454 1455 1456 1457 1458 1460 1461 1462 1464 1465 1467 1468
1475 1482 1484 1482 1476 1476 1477 1475 1475 1479 1481 1479 1472 1463 1455 1454 1452 1452 1451 1450 1450 1450 1450 1449 1449 1449 1450 1450 1450 1450 1451 1451 1452 1452 1453 1454 1455 1456 1458 1459 1461 1462 1463 1464
1475 1481 1481 1477 1473 1473 1472 1471 1471 1472 1471 1472 1463 1460 1452 1451 1451 1450 1449 1448 1448 1448 1447 1447 1447 1448 1448 1448 1448 1448 1448 1449 1449 1449 1450 1451 1452 1454 1455 1456 1458 1459 1460 1460
1475 1480 1479 1476 1471 1471 1469 1466 1466 1465 1464 1463 1459 1455 1448 1448 1448 1448 1447 1446 1446 1446 1445 1445 1445 1445 1445 1445 1445 1446 1446 1446 1446 1446 1447 1448 1449 1450 1452 1453 1454 1455 1456 1457
1476 1479 1480 1478 1474 1472 1469 1460 1459 1458 1456 1456 1455 1448 1445 1446 1445 1444 1443 1443 1443 1443 1444 1444 1443 1443 1443 1443 1443 1442 1443 1443 1443 1443 1444 1445 1446 1447 1448 1450 1451 1452 1453 1454
1474 1477 1480 1480 1480 1477 1458 1451 1451 1452 1450 1449 1447 1444 1443 1442 1441 1440 1441 1441 1441 1441 1441 1441 1441 1441 1440 1440 1440 1440 1440 1440 1440 1440 1441 1442 1443 1444 1445 1446 1447 1448 1449 1450
1468 1473 1479 1480 1478 1469 1454 1449 1449 1450 1447 1444 1444 1442 1440 1439 1439 1438 1438 1438 1438 1438 1438 1438 1438 1438 1437 1437 1437 1437 1436 1437 1437 1437 1438 1439 1440 1441 1441 1443 1444 1445 1445 1446
1467 1469 1476 1478 1474 1468 1451 1445 1444 1447 1447 1440 1439 1439 1438 1438 1440 1436 1435 1435 1435 1435 1435 1435 1435 1434 1434 1434 1434 1434 1433 1433 1434 1434 1435 1436 1437 1437 1438 1439 1440 1441 1442 1443
1468 1470 1473 1473 1471 1459 1446 1443 1444 1451 1445 1437 1436 1435 1435 1435 1435 1433 1432 1432 1432 1432 1432 1432 1431 1431 1430 1430 1431 1430 1430 1430 1430 1431 1432 1433 1433 1434 1435 1436 1437 1437 1438 1439
1460 1464 1467 1468 1466 1457 1441 1442 1443 1440 1436 1435 1433 1432 1432 1431 1430 1429 1429 1428 1428 1428 1428 1428 1427 1427 1427 1427 1427 1427 1427 1427 1428 1428 1429 1429 1430 1431 1431 1432 1433 1434 1435 1435
1453 1451 1451 1451 1446 1438 1436 1436 1435 1434 1433 1432 1431 1430 1429 1428 1427 1426 1425 1425 1425 1425 1425 1425 1424 1424 1423 1423 1424 1423 1424 1424 1424 1425 1425 1426 1427 1427 1428 1429 1429 1430 1431 1432
1447 1444 1445 1444 1438 1434 1433 1432 1432 1432 1431 1429 1428 1427 1426 1424 1423 1423 1422 1421 1421 1421 1421 1421 1421 1420 1420 1420 1420 1420 1420 1421 1421 1421 1422 1422 1423 1424 1424 1425 1426 1426 1427 1427
1440 1441 1441 1439 1434 1431 1429 1429 1429 1428 1427 1426 1425 1424 1423 1422 1420 1419 1418 1418 1417 1417 1417 1417 1417 1416 1416 1416 1416 1417 1417 1417 1417 1418 1418 1419 1419 1420 1421 1421 1422 1423 1423 1424
1433 1435 1435 1432 1428 1428 1426 1425 1425 1424 1423 1422 1421 1420 1419 1419 1417 1416 1415 1414 1414 1413 1413 1413 1413 1412 1412 1413 1413 1413 1414 1414 1414 1414 1415 1415 1416 1416 1417 1418 1418 1419 1420 1420